Location: Newark
(11.2914°S, 14.4718°E)
Time: 23:07:42
(UTC+00:00)

Explorer 7 - Pass Details

Date: 20 September 2019
Orbit: 485 x 680 km, 50.3° (Epoch: 14 October)

Event Time Altitude Azimuth Distance (km) Brightness Sun altitude
Rises 19:02:39 0° 253° (WSW) 2,587 11.4 -31.3°
Reaches altitude 10° 19:06:25 10° 291° (WNW) 1,734 10.0 -32.2°
Maximum altitude 19:07:26 11° 306° (NW) 1,692 9.8 -32.5°
Enters shadow 19:07:42 11° 310° (NW) 1,699 9.8 -32.5°
